This demonstration page uses our WeatherBlox Daily Observations layout. Learn more.

Hourly Observations for October 27, 2020

Temp ( °F °C ) Dew Point ( °F °C ) Humidity (%) Winds ( mph kmh ) Pressure ( in mb ) Visibility ( mi km ) Precip ( " mm )
12:15 am 00:15 Clear 22 -5.8 15 -9.6 75 75 Calm 30.5 1033 10 16.0934 0 0
12:30 am 00:30 Clear 20 -6.4 14 -10 76 76 Calm 30.51 1033 10 16.0934 0 0
12:55 am 00:55 Mostly Cloudy 21 -6.1 15 -9.6 77 77 W 6 9 30.51 1033 10 16.0934 0 0
1:15 am 01:15 Partly Cloudy 20 -6.7 13 -10.4 75 75 W 7 11 30.5 1033 10 16.0934 0 0
1:35 am 01:35 Clear 19 -7.4 13 -10.5 79 79 W 6 9 30.5 1033 10 16.0934 0 0
1:55 am 01:55 Clear 19 -7.5 13 -10.5 79 79 WSW 5 7 30.51 1033 10 16.0934 0 0
2:15 am 02:15 Clear 18 -7.9 13 -10.7 81 81 SSW 3 6 30.49 1033 10 16.0934 0 0
2:35 am 02:35 Clear 17 -8.5 12 -11 82 82 SSW 5 7 30.49 1033 10 16.0934 0 0
2:55 am 02:55 Clear 15 -9.4 11 -11.4 86 86 SSW 5 7 30.51 1033 10 16.0934 0 0
3:15 am 03:15 Clear 15 -9.5 11 -11.4 86 86 SW 5 7 30.51 1033 10 16.0934 0 0
3:35 am 03:35 Clear 16 -9 12 -11 86 86 WSW 3 6 30.5 1033 10 16.0934 0 0
3:55 am 03:55 Clear 17 -8.1 13 -10.7 82 82 WSW 5 7 30.49 1032 10 16.0934 0 0
4:15 am 04:15 Clear 16 -9 11 -11.5 82 82 SW 6 9 30.5 1033 10 16.0934 0 0
4:35 am 04:35 Clear 16 -9 11 -11.5 82 82 SW 7 11 30.51 1033 10 16.0934 0 0
4:55 am 04:55 Clear 14 -10 10 -12.1 85 85 SW 6 9 30.5 1033 10 16.0934 0 0
5:15 am 05:15 Clear 14 -10.1 10 -12.1 85 85 Calm 30.5 1033 10 16.0934 0 0
5:35 am 05:35 Clear 14 -10 10 -12 85 85 WSW 3 6 30.49 1032 10 16.0934 0 0
5:55 am 05:55 Clear 15 -9.4 11 -11.5 85 85 WSW 8 13 30.46 1031 10 16.0934 0 0
6:15 am 06:15 Clear 16 -9 11 -11.5 82 82 W 9 15 30.45 1031 10 16.0934 0 0
6:35 am 06:35 Clear 15 -9.5 10 -12.1 82 82 W 7 11 30.45 1031 10 16.0934 0 0
6:55 am 06:55 Clear 15 -9.6 10 -12.1 82 82 WSW 8 13 30.46 1032 10 16.0934 0 0
7:15 am 07:15 Clear 14 -10.2 9 -12.6 83 83 W 7 11 30.45 1031 10 16.0934 0 0
7:35 am 07:35 Clear 13 -10.3 9 -12.8 82 82 WSW 7 11 30.46 1031 10 16.0934 0 0
7:55 am 07:55 Clear 13 -10.6 8 -13.4 80 80 SW 8 13 30.46 1032 10 16.0934 0 0
8:15 am 08:15 Sunny 12 -11 8 -13.2 84 84 SW 5 7 30.48 1032 10 16.0934 0 0
8:35 am 08:35 Sunny 14 -10.1 9 -12.8 81 81 WSW 7 11 30.47 1032 10 16.0934 0 0
8:55 am 08:55 Sunny 13 -10.5 8 -13.4 79 79 SW 7 11 30.47 1032 10 16.0934 0 0
9:15 am 09:15 Sunny 13 -10.5 9 -13 82 82 SW 7 11 30.48 1032 10 16.0934 0 0
9:35 am 09:35 Sunny 14 -10.2 9 -12.7 82 82 SW 6 9 30.48 1032 10 16.0934 0 0
9:55 am 09:55 Sunny 15 -9.5 10 -12.5 79 79 SW 6 9 30.46 1032 10 16.0934 0 0
10:15 am 10:15 Sunny 18 -7.7 11 -11.8 73 73 WSW 6 9 30.45 1031 10 16.0934 0 0
10:35 am 10:35 Sunny 19 -7.2 11 -11.5 72 72 WSW 7 11 30.44 1031 10 16.0934 0 0
10:55 am 10:55 Sunny 21 -6.3 12 -11 70 70 SW 7 11 30.42 1030 10 16.0934 0 0
11:15 am 11:15 Sunny 22 -5.5 14 -10.1 70 70 SW 8 13 30.4 1029 10 16.0934 0 0
11:35 am 11:35 Sunny 23 -5.1 14 -10 69 69 SSW 7 11 30.42 1030 10 16.0934 0 0
11:55 am 11:55 Sunny 23 -5 14 -10 68 68 SW 12 19 30.41 1030 10 16.0934 0 0
12:15 pm 12:15 Sunny 23 -5.1 13 -10.3 67 67 SSW 10 17 30.42 1030 10 16.0934 0 0
12:35 pm 12:35 Sunny 24 -4.2 15 -9.4 67 67 SW 8 13 30.41 1030 10 16.0934 0 0
12:55 pm 12:55 Sunny 26 -3.5 16 -8.9 67 67 WSW 7 11 30.37 1028 10 16.0934 0 0
1:15 pm 13:15 Sunny 28 -2 17 -8.4 62 62 SW 9 15 30.35 1028 10 16.0934 0 0
2:35 pm 14:35 Sunny 31 -0.6 18 -7.9 58 58 WSW 12 19 30.3 1026 10 16.0934 0 0
2:55 pm 14:55 Sunny 31 -0.3 17 -8.3 55 55 WSW 13 20 30.27 1025 10 16.0934 0 0
3:15 pm 15:15 Sunny 32 0 18 -7.9 56 56 W 13 20 30.26 1025 10 16.0934 0 0
3:35 pm 15:35 Sunny 33 0.3 19 -7.4 57 57 WSW 10 17 30.24 1024 10 16.0934 0 0
3:55 pm 15:55 Sunny 33 0.6 20 -6.5 59 59 SW 12 19 30.24 1024 10 16.0934 0 0
4:15 pm 16:15 Sunny 33 0.7 20 -6.5 59 59 SW 8 13 30.24 1024 10 16.0934 0 0
4:35 pm 16:35 Sunny 33 0.6 21 -6.1 61 61 SW 9 15 30.23 1024 10 16.0934 0 0
4:55 pm 16:55 Sunny 33 0.7 21 -6.2 60 60 SW 10 17 30.23 1024 10 16.0934 0 0
5:15 pm 17:15 Sunny 33 0.6 20 -6.5 59 59 SW 6 9 30.21 1023 10 16.0934 0 0
5:35 pm 17:35 Sunny 33 0.5 21 -6 62 62 SW 7 11 30.21 1023 10 16.0934 0 0
5:55 pm 17:55 Sunny 32 0.2 21 -6.3 62 62 SSW 8 13 30.21 1023 10 16.0934 0 0
6:15 pm 18:15 Sunny 32 0 21 -6.2 63 63 SW 6 9 30.22 1023 10 16.0934 0 0
6:35 pm 18:35 Sunny 31 -0.6 20 -6.5 65 65 SW 5 7 30.22 1023 10 16.0934 0 0
6:55 pm 18:55 Clear 30 -1.1 20 -6.6 67 67 SW 6 9 30.23 1024 10 16.0934 0 0
7:15 pm 19:15 Clear 29 -1.6 20 -6.6 69 69 SW 7 11 30.23 1024 10 16.0934 0 0
7:35 pm 19:35 Clear 28 -2 20 -6.9 69 69 SW 7 11 30.22 1024 10 16.0934 0 0
7:55 pm 19:55 Clear 28 -2 19 -7 69 69 SW 7 11 30.23 1024 10 16.0934 0 0
8:15 pm 20:15 Clear 28 -2.3 19 -7.1 70 70 SW 7 11 30.24 1024 10 16.0934 0 0
8:35 pm 20:35 Clear 27 -2.8 19 -7.3 71 71 SW 5 7 30.24 1024 10 16.0934 0 0
8:55 pm 20:55 Clear 28 -2.1 19 -7.1 69 69 WSW 6 9 30.24 1024 10 16.0934 0 0
9:15 pm 21:15 Clear 28 -2.1 19 -7 69 69 WSW 7 11 30.25 1024 10 16.0934 0 0
9:35 pm 21:35 Clear 28 -2.1 19 -7 69 69 SW 7 11 30.24 1024 10 16.0934 0 0
9:55 pm 21:55 Clear 29 -1.7 19 -7.1 67 67 SW 7 11 30.23 1024 10 16.0934 0 0
10:15 pm 22:15 Clear 29 -1.5 19 -7.3 65 65 WSW 9 15 30.24 1024 10 16.0934 0 0
10:35 pm 22:35 Clear 29 -1.6 19 -7.3 65 65 WSW 8 13 30.22 1023 10 16.0934 0 0
10:55 pm 22:55 Clear 28 -2.3 19 -7.3 69 69 SW 8 13 30.23 1024 10 16.0934 0 0
11:15 pm 23:15 Clear 28 -2.4 19 -7.2 70 70 SW 6 9 30.22 1023 10 16.0934 0 0
11:35 pm 23:35 Clear 26 -3.5 18 -7.6 74 74 SW 8 13 30.24 1024 10 16.0934 0 0
11:55 pm 23:55 Clear 25 -3.8 19 -7.5 76 76 WSW 6 9 30.24 1024 10 16.0934 0 0

Powered by AerisWeather